This is the latest recevied weather packets stored in our database for station/object N5ATR. If no packets are shown the sender has not sent any weather packets the latest 10 day(s).
| Time | Temp. | Humidity | Pressure | Rain* | Wind** | Luminosity | Snow |
|---|---|---|---|---|---|---|---|
| 1777386555 | 9.44° C | 31% | 1018.1 hPa | 0 mm | - | 249 W/m² | - |
| 1777386252 | 9.44° C | 30% | 1018.3 hPa | 0 mm | - | 232 W/m² | - |
| 1777385949 | 8.89° C | 31% | 1018.2 hPa | 0 mm | - | 214 W/m² | - |
| 1777385645 | 8.89° C | 31% | 1018.1 hPa | 0 mm | - | 197 W/m² | - |
| 1777385343 | 8.33° C | 31% | 1018.1 hPa | 0 mm | - | 180 W/m² | - |
| 1777385038 | 8.33° C | 31% | 1018.1 hPa | 0 mm | - | 143 W/m² | - |
| 1777384736 | 8.33° C | 32% | 1018 hPa | 0 mm | - | 36 W/m² | - |
| 1777384435 | 7.78° C | 32% | 1017.8 hPa | 0 mm | - | 35 W/m² | - |
| 1777384131 | 7.78° C | 32% | 1017.8 hPa | 0 mm | - | 33 W/m² | - |
| 1777383828 | 7.78° C | 32% | 1017.8 hPa | 0 mm | - | 32 W/m² | - |
| 1777383524 | 7.78° C | 32% | 1017.6 hPa | 0 mm | - | 31 W/m² | - |
| 1777383221 | 7.78° C | 32% | 1017.7 hPa | 0 mm | - | 30 W/m² | - |
| 1777382918 | 7.22° C | 32% | 1017.2 hPa | 0 mm | - | 29 W/m² | - |
| 1777382613 | 7.22° C | 33% | 1017.2 hPa | 0 mm | - | 28 W/m² | - |
| 1777382309 | 7.22° C | 32% | 1017.3 hPa | 0 mm | - | 26 W/m² | - |
| 1777382006 | 6.67° C | 32% | 1017 hPa | 0 mm | - | 25 W/m² | - |
| 1777381700 | 6.67° C | 32% | 1017.1 hPa | 0 mm | - | 24 W/m² | - |
| 1777381396 | 6.67° C | 32% | 1017 hPa | 0 mm | - | 22 W/m² | - |
| 1777381093 | 6.67° C | 32% | 1017 hPa | 0 mm | - | 21 W/m² | - |
| 1777380789 | 6.67° C | 32% | 1016.7 hPa | 0 mm | - | 19 W/m² | - |
| 1777380486 | 5.56° C | 32% | 1016.9 hPa | 0 mm | - | 17 W/m² | - |
| 1777380183 | 5.56° C | 32% | 1016.6 hPa | 0 mm | - | 15 W/m² | - |
| 1777379879 | 5.56° C | 31% | 1016.4 hPa | 0 mm | - | 12 W/m² | - |
| 1777379574 | 5.56° C | 32% | 1016.4 hPa | 0 mm | - | 9 W/m² | - |
| 1777379270 | 5.56° C | 32% | 1016.1 hPa | 0 mm | - | 7 W/m² | - |
* Rain latest hour (hover to see other rain measurements)
** Current wind speed in m/s (hover to see current wind gust speed)